Location: Cheching
(60.0667°N, 164.2167°W)
Time: 14:50:24
(UTC+00:00)

O/OREOS (USA 219) - Pass Details

Date: 19 January 2021
Orbit: 621 x 646 km, 72.0° (Epoch: 22 May)

Event Time Altitude Azimuth Distance (km) Brightness Sun altitude
Rises 04:08:26 0° 320° (NW) 2,964 ? -10.4°
Reaches altitude 10° 04:10:55 10° 311° (NW) 2,046 ? -10.7°
Maximum altitude 04:14:56 30° 250° (WSW) 1,139 ? -11.2°
Drops below altitude 10° 04:18:54 10° 189° (S) 2,020 ? -11.6°
Sets 04:21:20 0° 179° (S) 2,919 ? -11.9°
